{"data":{"norad_id":62832,"intl_designator":"2025-019D","name":"STARLINK-11549 [DTC]","alt_names":[],"object_type":"PAYLOAD","status":"ACTIVE","operator":null,"country":"US","launch_date":"2025-01-27","launch_site_code":"AFETR","launch_vehicle":null,"mission":null,"orbit_class":"UNKNOWN","rcs_meters":null,"size_class":null,"mass_kg":null,"dimensions":null,"purposes":["comms"],"wikipedia_slug":null,"has_3d_model":false,"image_url":null,"decayed_at":null,"tle_current":{"epoch":"2026-09-21T05:49:40.851552Z","epoch_age_seconds":104018,"freshness":"FRESH","line1":"1 62832U 25019D   26264.24283393  .00205737  00000+0  15645-2 0  9998","line2":"2 62832  43.0001 207.4803 0001053 290.0302  70.0452 15.70885775 94633","mean_motion":15.70885775,"eccentricity":0.0001053,"inclination_deg":43.0001,"raan_deg":207.4803,"arg_perigee_deg":290.0302,"mean_anomaly_deg":70.0452,"bstar":0.0015645,"rev_number":9463,"period_min":91.668027231324,"perigee_km":355.65508824902,"apogee_km":357.07337420832,"semimajor_km":6734.5012312287,"source":"CELESTRAK","updated_at":"2026-09-22T09:00:49.671581Z"}}}